CW9804 Weather Reports


Display with metric or nautical units.
time (UTC)temp
F
wind
direction
speed
MPH
gust
MPH
rain 1hr
in
rain 24hr
in
rain mn
in
humidity
%
barometer
mb
20190123221915 28 96 0.0 0.0 0.00 0.11 0.11 86 1001.0
20190123220414 28 92 4.0 6.0 0.00 0.11 0.11 85 1001.0
20190123214914 28 96 3.0 4.0 0.00 0.11 0.11 86 1000.9
20190123213413 28 99 2.0 3.0 0.00 0.11 0.11 86 1000.8
20190123211913 28 78 1.0 3.0 0.00 0.11 0.11 86 1000.6
20190123210413 28 71 0.0 2.0 0.00 0.11 0.11 86 1000.6
20190123204913 28 55 0.0 0.0 0.00 0.11 0.11 86 1000.6
20190123203414 28 55 0.0 1.0 0.00 0.11 0.11 86 1000.5
20190123201913 28 104 2.0 6.0 0.00 0.11 0.11 86 1000.6
20190123200413 28 74 2.0 6.0 0.00 0.11 0.11 86 1000.5
20190123194913 28 82 1.0 3.0 0.00 0.11 0.11 86 1000.5
20190123193413 28 82 1.0 6.0 0.00 0.11 0.11 86 1000.5
20190123191913 28 104 0.0 2.0 0.00 0.11 0.11 86 1000.4
20190123190413 28 88 3.0 6.0 0.00 0.11 0.11 86 1000.3
20190123184913 28 86 3.0 5.0 0.00 0.11 0.11 86 1000.2
20190123183413 28 81 3.0 6.0 0.00 0.11 0.11 85 1000.0
20190123181913 28 90 2.0 3.0 0.00 0.11 0.11 86 1000.0
20190123180413 28 59 0.0 3.0 0.00 0.11 0.11 86 1000.2
20190123174912 28 113 1.0 2.0 0.00 0.11 0.11 85 1000.1
20190123173413 28 96 3.0 6.0 0.00 0.11 0.11 85 1000.0
20190123171912 28 86 1.0 3.0 0.00 0.11 0.11 85 999.9
20190123170412 28 92 3.0 4.0 0.00 0.11 0.11 85 999.9
20190123164912 28 90 3.0 6.0 0.00 0.11 0.11 85 1000.0
20190123163412 28 88 2.0 6.0 0.00 0.11 0.11 85 999.7
20190123161912 28 94 5.0 7.0 0.00 0.11 0.11 85 999.6
20190123160412 28 69 2.0 3.0 0.00 0.11 0.11 85 999.4
20190123154912 28 103 4.0 6.0 0.00 0.11 0.11 85 999.5
20190123153412 29 90 3.0 7.0 0.00 0.11 0.11 84 999.3
20190123151912 29 57 1.0 3.0 0.00 0.11 0.11 84 999.3
20190123150412 29 76 2.0 6.0 0.01 0.11 0.11 86 999.3
20190123144912 28 94 3.0 6.0 0.01 0.11 0.11 88 999.4
20190123143411 28 70 2.0 4.0 0.01 0.11 0.11 88 999.3
20190123141911 28 53 1.0 4.0 0.01 0.11 0.11 87 999.1
20190123140411 28 61 2.0 4.0 0.00 0.10 0.10 88 999.0
20190123134920 28 80 2.0 4.0 0.00 0.10 0.10 88 999.0
20190123133411 28 69 1.0 4.0 0.00 0.10 0.10 88 999.1
20190123131911 28 56 2.0 5.0 0.00 0.10 0.10 88 999.0
20190123130411 28 90 2.0 4.0 0.00 0.10 0.10 87 999.0
20190123124911 28 74 3.0 5.0 0.00 0.10 0.10 85 999.2
20190123123411 29 23 2.0 4.0 0.00 0.10 0.10 84 999.2
20190123121911 29 61 0.0 4.0 0.00 0.10 0.10 83 999.4
20190123120411 29 72 3.0 6.0 0.00 0.10 0.10 82 999.5
20190123114911 29 69 3.0 4.0 0.00 0.10 0.10 82 999.7
20190123113410 29 40 1.0 3.0 0.00 0.10 0.10 82 999.8
20190123111910 28 61 1.0 4.0 0.00 0.10 0.10 82 999.9
20190123110410 29 75 2.0 4.0 0.00 0.10 0.10 83 1000.2
20190123104910 28 90 4.0 8.0 0.00 0.10 0.10 84 1000.3
20190123103410 28 74 3.0 5.0 0.00 0.10 0.10 84 1000.4
20190123101911 28 91 2.0 5.0 0.00 0.10 0.10 84 1000.6
20190123100410 28 70 4.0 7.0 0.00 0.10 0.10 84 1000.8
20190123094917 28 53 2.0 4.0 0.00 0.10 0.10 84 1000.9
20190123093417 28 65 3.0 5.0 0.00 0.10 0.10 85 1001.0
20190123091918 28 69 1.0 4.0 0.00 0.10 0.10 85 1001.1
20190123090416 28 80 2.0 4.0 0.01 0.10 0.10 85 1001.1
20190123084916 28 84 1.0 2.0 0.01 0.10 0.10 84 1001.2
20190123083416 28 88 3.0 6.0 0.01 0.10 0.10 85 1001.1
20190123081916 27 80 2.0 4.0 0.01 0.10 0.10 86 1001.2
20190123080417 27 94 2.0 4.0 0.00 0.09 0.09 87 1001.2
20190123074916 27 57 1.0 3.0 0.00 0.09 0.09 87 1001.3
20190123073417 27 107 1.0 4.0 0.00 0.09 0.09 87 1001.3
20190123071916 27 90 3.0 4.0 0.00 0.09 0.09 86 1001.5
20190123070416 27 96 3.0 4.0 0.00 0.09 0.09 86 1001.6
20190123064916 27 82 1.0 4.0 0.00 0.09 0.09 85 1001.4
20190123063416 27 88 2.0 6.0 0.00 0.09 0.09 84 1001.4
20190123061915 27 94 1.0 4.0 0.00 0.09 0.09 84 1001.4
20190123060415 27 114 1.0 4.0 0.00 0.09 0.09 84 1001.4
20190123054915 27 112 1.0 3.0 0.00 0.09 0.09 83 1001.3
20190123053415 28 102 3.0 4.0 0.00 0.09 0.09 84 1001.5
20190123051915 28 98 0.0 2.0 0.00 0.09 0.09 84 1001.5
20190123050415 28 96 1.0 3.0 0.00 0.09 0.09 84 1001.4
20190123044915 27 112 0.0 2.0 0.00 0.09 0.09 84 1001.5
20190123043415 27 74 0.0 1.0 0.00 0.09 0.09 85 1001.5
20190123041915 27 74 1.0 3.0 0.00 0.09 0.09 85 1001.5
20190123040415 27 59 0.0 1.0 0.01 0.09 0.09 86 1001.5
20190123034915 27 78 0.0 3.0 0.01 0.09 0.09 86 1001.6
20190123033415 27 82 1.0 3.0 0.02 0.09 0.09 87 1001.8
20190123031915 27 94 1.0 2.0 0.05 0.09 0.09 88 1002.0
20190123030415 27 63 1.0 3.0 0.05 0.09 0.09 87 1001.9
20190123024915 28 99 3.0 5.0 0.06 0.09 0.09 86 1002.1
20190123023415 28 148 1.0 3.0 0.04 0.07 0.07 87 1002.3
20190123021915 28 93 0.0 2.0 0.02 0.05 0.05 87 1002.5
20190123020415 28 63 1.0 3.0 0.01 0.04 0.04 87 1002.7
20190123014915 28 94 0.0 3.0 0.01 0.03 0.03 87 1002.8
20190123013415 28 32 0.0 1.0 0.02 0.03 0.03 87 1003.0
20190123011915 28 84 2.0 3.0 0.02 0.03 0.03 86 1003.1
20190123010414 28 87 2.0 3.0 0.02 0.03 0.03 87 1003.4
20190123004914 28 73 2.0 6.0 0.02 0.02 0.02 86 1003.4
20190123003414 28 93 3.0 5.0 0.02 0.02 0.02 87 1003.6
20190123000414 28 88 4.0 6.0 0.01 0.01 0.01 86 1003.9
20190122234914 28 94 2.0 6.0 0.00 0.00 0.00 85 1004.1
20190122233414 28 88 7.0 8.0 0.00 0.00 0.00 84 1004.2
20190122231914 28 96 4.0 9.0 0.00 0.00 0.00 83 1004.3
20190122230414 29 80 4.0 7.0 0.00 0.00 0.00 83 1004.7
20190122224914 29 111 3.0 5.0 0.00 0.00 0.00 83 1005.0
20190122223414 29 119 2.0 7.0 0.00 0.00 0.00 84 1005.1